Date String (YYYY-MM-DD hh:mm:ss) UTC,Instrument flags,absolute air pressure of the measurement (hPa),sample flow rate (lpm),inlet stack bypass flow (lpm),air temperature of the measurement (°C),ambient temperature measured by the external sensor (°C),aerosol sample conditioner tube jacket temperature (°C),OPC LED temperature (°C),internal box temperature (°C),relative humidity of the measurement (%),span deviation,mass concentration of particles derived from Lorenz-Mie calculation of OPC scattering (μg/m³),mass concentration of particles derived from Lorenz-Mie calculation of OPC scattering (μg/m³),mass concentration of particles derived from Lorenz-Mie calculation of OPC scattering (μg/m³)
DateTimeUTC,F1_M11,P_M11,Q1_M11,Q2_M11,T1_M11,T2_M11,T3_M11,T4_M11,T5_M11,U1_M11,ZSPAN_M11,X0_M11,X2_M11,X1_M11
2024-01-31 01:00:00,SystemResetWarning,0833.5,5.00,000.00,026.0,025.0,000.0,034.1,027.5,12.2,0002.5,0018.87,0006.11,0005.23
2024-01-31 01:01:00,SystemResetWarning,0833.5,5.00,000.00,026.0,025.1,000.0,034.1,027.5,12.2,0002.9,0018.34,0006.09,0005.19
2024-01-31 01:02:00,SystemResetWarning,0833.6,5.01,000.00,026.1,025.1,000.0,034.2,027.5,12.2,0003.0,0018.30,0006.04,0005.14
2024-01-31 01:03:00,SystemResetWarning,0833.6,5.00,000.00,026.1,025.1,000.0,034.2,027.6,12.1,0002.9,0018.12,0006.02,0005.11
2024-01-31 01:04:00,SystemResetWarning,0833.7,5.00,000.00,026.1,025.1,000.0,034.2,027.6,12.2,0001.8,0017.81,0006.00,0005.08
2024-01-31 01:05:00,SystemResetWarning,0833.7,4.99,000.00,026.1,025.1,000.0,034.2,027.6,12.2,0001.6,0016.29,0005.97,0005.05
2024-01-31 01:06:00,SystemResetWarning,0833.7,5.00,000.00,026.1,025.1,000.0,034.2,027.6,12.2,0001.1,0014.84,0005.93,0005.01
2024-01-31 01:07:00,SystemResetWarning,0833.7,5.00,000.00,026.1,025.1,000.0,034.2,027.6,12.3,0001.6,0014.82,0005.84,0004.96
2024-01-31 01:08:00,SystemResetWarning,0833.7,5.00,000.00,026.2,025.1,000.0,034.3,027.6,12.3,0001.3,0014.48,0005.80,0004.92
2024-01-31 01:09:00,SystemResetWarning,0833.7,5.00,000.00,026.2,025.2,000.0,034.3,027.6,12.1,0002.9,0014.32,0005.77,0004.90
2024-01-31 01:10:00,SystemResetWarning,0833.7,5.00,000.00,026.2,025.2,000.0,034.3,027.6,12.1,0003.5,0014.07,0005.74,0004.89
2024-01-31 01:11:00,SystemResetWarning,0833.7,5.01,000.00,026.2,025.2,000.0,034.3,027.6,12.1,0003.5,0014.00,0005.71,0004.87
2024-01-31 01:12:00,SystemResetWarning,0833.7,5.00,000.00,026.2,025.2,000.0,034.3,027.7,12.1,0003.1,0013.68,0005.68,0004.84
2024-01-31 01:13:00,SystemResetWarning,0833.7,5.00,000.00,026.2,025.2,000.0,034.3,027.7,12.1,0003.6,0013.69,0005.62,0004.83
2024-01-31 01:14:00,SystemResetWarning,0833.7,4.99,000.00,026.2,025.2,000.0,034.3,027.7,12.1,0001.9,0014.37,0005.60,0004.79
2024-01-31 01:15:00,SystemResetWarning,0833.7,5.00,000.00,026.2,025.2,000.0,034.4,027.7,12.1,0003.0,0014.01,0005.56,0004.77
2024-01-31 01:16:00,SystemResetWarning,0833.7,5.00,000.00,026.2,025.2,000.0,034.4,027.7,12.1,0004.4,0014.21,0005.52,0004.75
2024-01-31 01:17:00,SystemResetWarning,0833.7,5.00,000.00,026.2,025.2,000.0,034.4,027.7,12.1,0004.8,0013.95,0005.48,0004.72
2024-01-31 01:18:00,SystemResetWarning,0833.7,5.00,000.00,026.2,025.2,000.0,034.4,027.7,12.1,0004.4,0013.29,0005.49,0004.70
2024-01-31 01:19:00,SystemResetWarning,0833.7,5.01,000.00,026.3,025.2,000.0,034.4,027.7,12.1,0003.8,0015.09,0005.48,0004.68
2024-01-31 01:20:00,SystemResetWarning,0833.7,5.00,000.00,026.3,025.2,000.0,034.4,027.7,12.1,0002.4,0015.80,0005.43,0004.65
2024-01-31 01:21:00,SystemResetWarning,0833.7,5.01,000.00,026.3,025.2,000.0,034.4,027.7,12.0,0001.4,0015.70,0005.38,0004.61
2024-01-31 01:22:00,SystemResetWarning,0833.6,5.00,000.00,026.3,025.2,000.0,034.4,027.7,12.0,0000.8,0015.17,0005.34,0004.59
2024-01-31 01:23:00,SystemResetWarning,0833.7,4.99,000.00,026.3,025.2,000.0,034.5,027.7,12.1,0002.2,0015.86,0005.37,0004.60
2024-01-31 01:24:00,SystemResetWarning,0833.7,4.99,000.00,026.3,025.2,000.0,034.5,027.7,12.0,0001.0,0015.79,0005.38,0004.57
2024-01-31 01:25:00,SystemResetWarning,0833.7,5.00,000.00,026.3,025.2,000.0,034.5,027.7,12.0,0002.5,0015.33,0005.33,0004.57
2024-01-31 01:26:00,SystemResetWarning,0833.7,5.00,000.00,026.3,025.2,000.0,034.5,027.7,12.0,0002.0,0014.94,0005.27,0004.54
2024-01-31 01:27:00,SystemResetWarning,0833.7,5.00,000.00,026.3,025.2,000.0,034.5,027.7,12.0,0001.3,0015.52,0005.23,0004.51
2024-01-31 01:28:00,SystemResetWarning,0833.7,5.00,000.00,026.3,025.2,000.0,034.5,027.7,12.0,0000.7,0015.97,0005.22,0004.48
2024-01-31 01:29:00,SystemResetWarning,0833.7,5.00,000.00,026.3,025.2,000.0,034.5,027.7,12.0,0000.8,0015.49,0005.19,0004.44
2024-01-31 01:30:00,SystemResetWarning,0833.7,5.00,000.00,026.3,025.2,000.0,034.5,027.7,12.0,0000.6,0014.08,0005.15,0004.41
2024-01-31 01:31:00,SystemResetWarning,0833.7,5.00,000.00,026.3,025.2,000.0,034.5,027.7,12.0,0000.7,0013.76,0005.11,0004.38
2024-01-31 01:32:00,SystemResetWarning,0833.7,5.00,000.00,026.3,025.2,000.0,034.5,027.7,12.0,0000.4,0013.68,0005.06,0004.35
2024-01-31 01:33:00,SystemResetWarning,0833.7,5.00,000.00,026.3,025.2,000.0,034.5,027.7,12.0,-000.2,0014.33,0005.02,0004.32
2024-01-31 01:34:00,SystemResetWarning,0833.7,5.00,000.00,026.3,025.1,000.0,034.5,027.7,12.0,-001.2,0014.07,0004.95,0004.26
2024-01-31 01:35:00,SystemResetWarning,0833.7,5.00,000.00,026.3,025.2,000.0,034.5,027.7,12.0,-001.4,0013.95,0004.96,0004.23
2024-01-31 01:36:00,SystemResetWarning,0833.7,5.00,000.00,026.3,025.2,000.0,034.5,027.7,12.0,-002.3,0013.84,0004.96,0004.20
2024-01-31 01:37:00,SystemResetWarning,0833.7,5.01,000.00,026.3,025.1,000.0,034.5,027.7,12.0,-002.2,0014.17,0004.95,0004.20
2024-01-31 01:38:00,SystemResetWarning,0833.8,5.00,000.00,026.3,025.1,000.0,034.5,027.7,12.0,-002.4,0014.34,0004.97,0004.21
2024-01-31 01:39:00,SystemResetWarning,0833.8,5.01,000.00,026.3,025.1,000.0,034.5,027.7,12.0,-002.4,0014.27,0004.96,0004.20
2024-01-31 01:40:00,SystemResetWarning,0833.8,5.00,000.00,026.3,025.1,000.0,034.6,027.7,12.0,-003.2,0014.05,0004.95,0004.20
2024-01-31 01:41:00,SystemResetWarning,0833.8,5.00,000.00,026.3,025.1,000.0,034.6,027.7,12.0,-002.9,0013.97,0004.94,0004.18
2024-01-31 01:42:00,SystemResetWarning,0833.8,5.00,000.00,026.3,025.1,000.0,034.6,027.7,12.0,-002.7,0013.84,0004.95,0004.17
2024-01-31 01:43:00,SystemResetWarning,0833.8,5.00,000.00,026.3,025.1,000.0,034.6,027.7,12.0,-002.5,0014.06,0005.00,0004.17
2024-01-31 01:44:00,SystemResetWarning,0833.8,4.99,000.00,026.3,025.1,000.0,034.6,027.7,12.0,-001.5,0014.30,0005.03,0004.19
2024-01-31 01:45:00,SystemResetWarning,0833.8,4.99,000.00,026.3,025.1,000.0,034.6,027.7,12.0,-000.9,0013.94,0005.06,0004.22
2024-01-31 01:46:00,SystemResetWarning,0833.8,5.00,000.00,026.3,025.1,000.0,034.6,027.7,12.0,-001.2,0014.39,0005.10,0004.25
2024-01-31 01:47:00,SystemResetWarning,0833.8,5.01,000.00,026.3,025.1,000.0,034.6,027.7,12.0,-001.1,0014.35,0005.17,0004.28
2024-01-31 01:48:00,SystemResetWarning,0833.8,5.00,000.00,026.3,025.1,000.0,034.6,027.7,12.0,-000.8,0014.29,0005.18,0004.29
2024-01-31 01:49:00,SystemResetWarning,0833.8,5.01,000.00,026.3,025.1,000.0,034.6,027.6,12.0,-001.2,0013.35,0005.19,0004.31
2024-01-31 01:50:00,SystemResetWarning,0833.8,5.00,000.00,026.3,025.1,000.0,034.6,027.6,12.0,-001.4,0012.71,0005.19,0004.32
2024-01-31 01:51:00,SystemResetWarning,0833.8,4.99,000.00,026.3,025.1,000.0,034.6,027.6,12.0,-001.3,0013.42,0005.20,0004.32
2024-01-31 01:52:00,SystemResetWarning,0833.7,5.00,000.00,026.3,025.1,000.0,034.6,027.6,11.9,-001.5,0013.71,0005.20,0004.32
2024-01-31 01:53:00,SystemResetWarning,0833.7,5.00,000.00,026.3,025.0,000.0,034.6,027.6,12.0,-001.4,0014.22,0005.20,0004.34
2024-01-31 01:54:00,SystemResetWarning,0833.9,4.99,000.00,026.3,025.0,000.0,034.6,027.6,12.0,-001.2,0014.19,0005.21,0004.36
2024-01-31 01:55:00,SystemResetWarning,0833.8,4.99,000.00,026.3,025.0,000.0,034.6,027.6,12.0,-000.8,0013.75,0005.23,0004.37
2024-01-31 01:56:00,SystemResetWarning,0833.7,5.00,000.00,026.3,025.0,000.0,034.6,027.6,12.0,-001.2,0013.72,0005.22,0004.37
2024-01-31 01:57:00,SystemResetWarning,0833.7,5.01,000.00,026.2,025.0,000.0,034.6,027.6,11.9,-001.4,0013.10,0005.17,0004.37
2024-01-31 01:58:00,SystemResetWarning,0833.8,5.00,000.00,026.2,025.0,000.0,034.6,027.6,11.9,0000.0,0013.47,0005.12,0004.36
2024-01-31 01:59:00,SystemResetWarning,0833.7,5.00,000.00,026.2,025.0,000.0,034.6,027.6,11.9,0002.0,0013.64,0005.10,0004.37
